FW5669 Weather Reports


time (UTC)temp
C
wind
direction
speed
KPH
gust
KPH
rain 1hr
cm
rain 24hr
cm
rain mn
cm
humidity
%
barometer
mb
20260509180001 23 204 0.0 4.8 0.00 0.00 0.00 62 1015.8
20260509174559 22 185 0.0 4.8 0.00 0.00 0.00 63 1015.9
20260509173110 22 164 3.2 6.4 0.00 0.00 0.00 62 1015.8
20260509171600 22 212 0.0 6.4 0.00 0.00 0.00 65 1016.0
20260509170100 22 243 0.0 4.8 0.00 0.00 0.00 65 1015.9
20260509170002 22 198 0.0 4.8 0.00 0.00 0.00 63 1015.9
20260509164600 22 220 1.6 4.8 0.00 0.00 0.00 63 1015.8
20260509163101 22 227 0.0 3.2 0.00 0.00 0.00 65 1015.6
20260509161604 22 226 0.0 3.2 0.00 0.00 0.00 64 1015.7
20260509160005 22 138 0.0 1.6 0.00 0.00 0.00 64 1015.9
20260509154614 21 353 0.0 1.6 0.00 0.00 0.00 64 1015.8
20260509153110 20 351 0.0 1.6 0.00 0.00 0.00 70 1015.8
20260509151612 19 320 0.0 3.2 0.00 0.00 0.00 74 1016.0
20260509150002 17 38 0.0 1.6 0.00 0.00 0.00 74 1016.0
20260509144602 16 51 0.0 3.2 0.00 0.00 0.00 77 1015.8
20260509143110 15 47 0.0 0.0 0.00 0.00 0.00 82 1015.6
20260509141600 13 55 0.0 0.0 0.00 0.00 0.00 87 1015.6
20260509140002 12 49 0.0 0.0 0.00 0.00 0.00 90 1015.6
20260509134601 11 7 0.0 0.0 0.00 0.00 0.00 92 1015.5
20260509133001 11 7 0.0 0.0 0.00 0.00 0.00 92 1015.6
20260509131600 11 7 0.0 0.0 0.00 0.00 0.00 91 1015.6
20260509130115 12 355 0.0 0.0 0.00 0.00 0.00 91 1015.6
20260509130002 12 355 0.0 0.0 0.00 0.00 0.00 91 1015.5
20260509124600 12 355 0.0 0.0 0.00 0.00 0.00 91 1015.4
20260509123003 12 355 0.0 0.0 0.00 0.00 0.00 91 1015.3
20260509121501 12 355 0.0 0.0 0.00 0.00 0.00 90 1015.3
20260509120002 12 355 0.0 0.0 0.00 0.00 0.00 90 1015.4
20260509114600 12 355 0.0 0.0 0.00 0.00 0.00 91 1015.2
20260509113101 12 355 0.0 0.0 0.00 0.00 0.00 91 1015.3
20260509111612 12 355 0.0 0.0 0.00 0.00 0.00 91 1015.2
20260509111502 12 355 0.0 0.0 0.00 0.00 0.00 91 1015.3
20260509110101 12 355 0.0 0.0 0.00 0.00 0.00 91 1015.4
20260509110001 12 355 0.0 0.0 0.00 0.00 0.00 91 1015.4
20260509104611 12 355 0.0 0.0 0.00 0.00 0.00 91 1015.5
20260509103111 12 355 0.0 0.0 0.00 0.00 0.00 91 1015.5
20260509101600 12 355 0.0 0.0 0.00 0.00 0.00 91 1015.7
20260509101502 12 355 0.0 0.0 0.00 0.00 0.00 91 1015.7
20260509100005 12 355 0.0 0.0 0.00 0.00 0.00 91 1015.8
20260509094602 12 355 0.0 0.0 0.00 0.00 0.00 91 1015.8
20260509093103 12 355 0.0 0.0 0.00 0.00 0.00 91 1015.8
20260509093001 12 355 0.0 0.0 0.00 0.00 0.00 91 1015.9
20260509091600 12 355 0.0 0.0 0.00 0.00 0.00 91 1016.0
20260509090106 13 355 0.0 0.0 0.00 0.00 0.00 91 1016.1
20260509090001 13 355 0.0 0.0 0.00 0.00 0.00 91 1016.1
20260509084608 13 355 0.0 0.0 0.00 0.00 0.00 91 1016.0
20260509083059 13 355 0.0 0.0 0.00 0.00 0.00 91 1016.1
20260509081600 13 355 0.0 0.0 0.00 0.00 0.00 90 1016.3
20260509080001 13 355 0.0 0.0 0.00 0.00 0.00 90 1016.4
20260509074501 13 355 0.0 0.0 0.00 0.00 0.00 90 1016.4
20260509073003 13 355 0.0 0.0 0.00 0.00 0.00 90 1016.5
20260509071501 13 355 0.0 0.0 0.00 0.00 0.00 90 1016.4
20260509070003 13 355 0.0 0.0 0.00 0.00 0.00 89 1016.1
20260509064603 14 355 0.0 0.0 0.00 0.00 0.00 88 1016.1
20260509064501 14 355 0.0 0.0 0.00 0.00 0.00 89 1016.2
20260509063000 14 355 0.0 0.0 0.00 0.00 0.00 88 1016.4
20260509061501 15 355 0.0 0.0 0.00 0.00 0.00 88 1016.3
20260509060002 15 355 0.0 0.0 0.00 0.00 0.00 87 1016.3
20260509054600 15 172 0.0 0.0 0.00 0.00 0.00 87 1016.5
20260509054501 15 172 0.0 0.0 0.00 0.00 0.00 86 1016.5
20260509053103 15 346 0.0 0.0 0.00 0.00 0.00 86 1016.4
20260509051602 15 346 0.0 0.0 0.00 0.00 0.00 86 1016.3
20260509050101 16 346 0.0 0.0 0.00 0.00 0.00 86 1016.4
20260509050001 16 346 0.0 0.0 0.00 0.00 0.00 86 1016.4
20260509044600 16 346 0.0 0.0 0.00 0.00 0.00 85 1016.4
20260509043100 16 346 0.0 0.0 0.00 0.00 0.00 84 1016.0
20260509043001 16 346 0.0 0.0 0.00 0.00 0.00 84 1016.0
20260509041600 17 346 0.0 0.0 0.00 0.00 0.00 83 1015.9
20260509041501 17 324 0.0 0.0 0.00 0.00 0.00 83 1015.9
20260509040001 17 260 0.0 0.0 0.00 0.00 0.00 81 1015.9
20260509034601 18 260 0.0 0.0 0.00 0.00 0.00 79 1015.8
20260509033102 19 260 0.0 0.0 0.00 0.00 0.00 75 1015.8
20260509031600 20 260 0.0 0.0 0.00 0.00 0.00 71 1015.8
20260509030101 21 260 0.0 0.0 0.00 0.00 0.00 67 1015.6
20260509030002 21 260 0.0 0.0 0.00 0.00 0.00 67 1015.6
20260509024603 22 260 0.0 0.0 0.00 0.00 0.00 64 1015.6
20260509023107 23 260 0.0 0.0 0.00 0.00 0.00 61 1015.6
20260509023000 23 260 0.0 0.0 0.00 0.00 0.00 61 1015.6
20260509021601 23 260 0.0 0.0 0.00 0.00 0.00 57 1015.5
20260509020002 24 260 0.0 1.6 0.00 0.00 0.00 53 1015.6
20260509014505 24 260 0.0 1.6 0.00 0.00 0.00 52 1015.6
20260509013002 25 232 0.0 3.2 0.00 0.00 0.00 49 1015.6
20260509011502 25 200 0.0 3.2 0.00 0.00 0.00 51 1015.7
20260509010003 25 243 0.0 4.8 0.00 0.00 0.00 52 1015.8
20260509004608 25 195 1.6 4.8 0.00 0.00 0.00 53 1015.8
20260509003003 25 200 1.6 4.8 0.00 0.00 0.00 55 1016.1
20260509001601 25 208 1.6 4.8 0.00 0.00 0.00 54 1016.2
20260509000100 25 229 1.6 4.8 0.00 0.00 0.00 53 1016.1
20260509000004 25 244 1.6 4.8 0.00 0.00 0.00 53 1016.1
20260508234501 26 168 3.2 6.4 0.00 0.00 0.00 54 1016.2
20260508233004 26 254 3.2 6.4 0.00 0.00 0.00 55 1016.3
20260508231503 26 202 1.6 4.8 0.00 0.00 0.00 52 1016.4
20260508230002 26 278 3.2 6.4 0.00 0.00 0.00 55 1016.5
20260508224603 26 191 1.6 6.4 0.00 0.00 0.00 55 1016.8
20260508223100 26 283 1.6 6.4 0.00 0.00 0.00 55 1017.1
20260508223002 26 199 1.6 4.8 0.00 0.00 0.00 58 1017.2
20260508221601 26 184 1.6 4.8 0.00 0.00 0.00 57 1017.2
20260508220100 25 247 1.6 4.8 0.00 0.00 0.00 58 1017.6
20260508220002 25 179 3.2 4.8 0.00 0.00 0.00 57 1017.5
20260508214600 25 166 0.0 6.4 0.00 0.00 0.00 60 1017.8
20260508213100 25 190 1.6 6.4 0.00 0.00 0.00 59 1018.0
20260508211600 25 206 3.2 6.4 0.00 0.00 0.00 60 1018.0
20260508204601 24 249 3.2 12.9 0.00 0.00 0.00 63 1018.2
20260508203107 23 195 0.0 8.0 0.00 0.00 0.00 62 1018.3
20260508201606 23 185 3.2 9.7 0.00 0.00 0.00 60 1018.5
20260508200004 23 273 1.6 8.0 0.00 0.00 0.00 62 1018.5
20260508194601 23 217 1.6 6.4 0.00 0.00 0.00 63 1018.7
20260508194501 23 179 1.6 6.4 0.00 0.00 0.00 62 1018.7
20260508193105 23 212 3.2 8.0 0.00 0.00 0.00 64 1018.7
20260508191501 22 183 4.8 12.9 0.00 0.00 0.00 65 1018.8
20260508190007 22 242 1.6 6.4 0.00 0.00 0.00 66 1018.9
20260508184600 22 213 1.6 6.4 0.00 0.00 0.00 67 1018.9
20260508183101 22 239 1.6 4.8 0.00 0.00 0.00 63 1018.8
20260508181609 22 291 1.6 4.8 0.00 0.00 0.00 65 1018.8
20260508181500 22 203 1.6 4.8 0.00 0.00 0.00 65 1018.8